Wind_Speed
23 21 19 17 17 18 18 16 16 14 14 12 13 14 15 16 16 15 13 12 11 9 9 9 8 7 6 6 6 6 5 5 7 5 3 2 2 6 7 5 7 10 15
22 21 21 19 17 16 17 17 16 16 15 15 14 13 14 18 18 17 14 13 13 12 11 11 12 10 11 10 9 9 8 7 8 7 4 3 2 4 4 6 7 9 11
21 21 21 20 20 19 18 16 16 16 16 15 16 16 13 14 15 16 15 15 16 16 13 12 13 12 12 12 12 11 9 8 7 5 6 3 2 2 2 4 7 9 10
22 22 23 23 23 21 20 18 16 16 14 13 14 14 13 14 16 14 16 16 15 15 15 14 13 13 14 13 14 14 13 10 8 6 5 4 2 1 1 2 6 9 9
23 24 26 25 23 21 20 21 19 19 18 16 14 15 14 13 14 16 17 18 18 15 14 14 12 13 14 13 14 13 12 11 8 5 4 3 1 1 1 1 2 7 10
23 26 25 23 24 25 24 21 19 19 18 18 18 16 14 13 17 17 18 18 17 16 15 11 12 11 10 11 12 13 12 10 8 6 4 4 3 2 1 0 1 3 3
23 23 23 23 28 22 21 19 18 17 17 16 16 15 15 15 19 17 16 14 12 11 11 14 12 8 6 3 4 3 5 5 7 8 10 6 3 4 5 3 4 5 4
26 22 22 21 20 18 19 19 17 14 14 11 12 14 16 19 20 18 15 13 9 9 12 13 10 8 9 8 6 4 4 4 4 5 9 8 6 4 5 2 4 7 6
19 21 19 19 19 18 17 16 15 13 11 10 10 10 11 14 17 17 14 12 10 10 10 12 11 11 10 9 9 11 11 12 10 11 14 12 9 6 4 2 1 4 1
12 13 16 17 17 20 19 15 14 13 11 9 8 9 10 10 12 15 19 19 16 14 14 12 11 10 9 9 9 11 13 13 12 11 12 10 8 9 7 7 5 2 2
13 15 15 20 23 24 21 21 17 13 10 8 7 5 7 8 10 12 14 17 20 21 17 15 14 10 8 9 10 10 10 14 13 11 9 9 9 10 11 11 10 8 6
4 5 10 10 10 15 22 17 15 13 13 11 8 5 5 5 12 13 11 14 16 15 16 12 11 11 10 8 8 9 11 13 12 10 8 8 8 9 10 11 12 13 13
14 20 22 12 10 15 11 15 18 14 13 10 8 7 6 8 7 5 10 12 13 12 13 15 13 12 13 12 12 13 15 10 8 7 7 8 7 7 8 9 10 12 12
15 15 13 14 11 11 13 12 12 12 13 12 9 7 8 8 9 11 12 11 12 17 16 16 13 12 12 15 13 11 10 10 10 10 9 8 8 7 7 5 4 3 5
13 11 10 9 11 11 11 12 11 9 9 10 7 6 8 7 8 11 12 13 14 15 19 17 16 16 13 13 14 12 11 9 10 10 10 9 8 7 7 5 5 6 6
16 14 13 12 13 12 13 14 12 10 9 10 8 5 6 6 7 9 10 11 16 19 18 18 17 16 13 13 11 13 10 11 10 10 9 9 9 8 7 6 6 6 6
18 18 18 17 15 15 13 14 16 16 14 15 14 12 12 12 8 7 7 12 17 15 14 12 11 13 12 12 11 11 9 9 10 9 9 9 8 8 8 6 5 5 5
11 12 11 12 11 12 11 13 13 15 13 11 9 9 8 7 5 9 13 15 14 11 13 15 14 14 15 14 13 12 13 11 9 10 9 9 7 6 6 6 6 5 4
8 8 8 7 6 6 7 8 8 11 12 11 9 8 7 7 7 9 14 9 9 9 7 9 10 11 10 9 10 11 9 9 9 9 8 7 7 7 7 7 7 6 5
6 7 6 5 6 6 6 7 8 8 7 6 7 7 10 9 9 11 10 8 9 9 9 10 11 11 11 11 11 10 8 9 9 8 7 5 5 4 5 6 6 4 3
3 3 4 5 6 6 6 6 6 6 5 6 6 8 10 7 7 8 9 9 9 10 11 11 10 10 10 11 11 11 10 9 9 8 8 5 5 6 6 5 5 3 2
3 2 2 3 6 6 6 5 5 4 5 5 5 6 9 7 5 6 7 8 8 8 9 10 10 10 11 12 12 11 11 11 10 9 8 8 7 6 5 4 2 1 1
5 6 6 6 6 7 8 8 7 6 6 7 7 7 10 8 7 7 9 10 10 10 11 10 9 10 11 12 12 11 12 12 11 11 10 9 7 5 4 3 2 2 3
7 8 8 8 8 8 8 8 8 8 8 10 11 10 10 10 9 9 9 10 11 11 12 11 11 11 12 13 12 13 13 13 12 12 11 9 7 6 4 3 3 3 4
10 9 10 10 10 10 8 8 8 8 7 7 8 9 10 11 11 11 11 10 11 13 13 13 12 12 14 15 15 15 16 17 15 14 13 10 8 8 6 5 4 3 4
13 11 11 11 10 9 8 6 6 7 7 8 8 7 7 9 10 12 13 14 13 15 16 17 16 16 17 18 19 19 19 20 20 18 15 13 12 11 9 7 6 6 5
Wind_Direction
209 212 216 221 222 230 234 235 242 245 236 238 229 228 227 227 222 224 232 234 238 241 238 237 243 244 241 234 232 238 249 242 271 280 286 299 324 11 22 60 69 71 64
214 214 217 222 224 224 226 233 240 245 243 246 248 244 236 238 232 228 230 228 228 236 240 240 246 248 245 244 242 238 245 249 265 279 292 278 266 18 72 91 100 89 87
212 218 222 223 223 225 228 231 239 238 242 247 244 243 238 227 227 235 236 234 235 235 238 238 239 235 238 241 248 247 246 240 247 259 280 278 269 14 92 97 82 93 85
218 218 219 223 225 227 230 233 231 233 242 243 234 242 248 238 230 233 241 239 237 239 243 244 239 238 245 246 250 250 245 245 247 265 274 267 258 294 107 151 111 84 85
222 223 223 223 225 225 229 232 231 236 241 242 239 243 245 240 236 235 238 244 244 243 239 243 246 249 254 253 247 243 244 237 247 250 243 247 300 351 4 341 152 145 73
228 232 228 222 222 224 228 228 228 229 234 235 241 240 242 241 244 244 247 245 247 249 242 236 235 240 244 244 242 240 240 234 225 225 225 219 199 192 149 127 166 205 167
233 239 235 224 225 220 220 219 224 228 230 231 235 240 243 243 248 243 243 249 243 242 230 229 216 214 226 227 206 211 205 219 216 208 192 177 166 167 150 145 119 106 87
239 234 226 228 223 213 207 207 209 215 224 231 241 243 239 242 244 238 237 236 225 210 216 217 208 202 196 185 152 132 127 134 153 168 170 145 144 123 122 122 140 131 110
211 219 225 219 201 207 199 188 195 199 207 218 233 245 247 247 249 238 223 216 211 204 205 196 194 195 191 186 167 141 119 104 116 130 124 115 113 119 132 118 133 237 201
202 200 197 189 190 185 191 205 211 208 217 216 229 244 250 242 247 236 230 227 205 182 172 164 161 160 168 177 180 152 138 139 133 119 110 112 102 92 88 89 47 48 118
222 215 224 217 219 203 194 194 185 179 182 179 185 204 244 239 219 200 215 209 185 163 151 147 140 145 154 163 172 163 157 147 143 121 105 94 83 70 63 58 72 74 66
247 254 258 203 157 168 162 164 150 161 152 139 120 127 170 197 212 211 206 178 164 165 164 158 153 157 153 152 171 173 167 162 150 132 105 85 78 76 76 77 73 73 76
116 110 121 114 142 148 161 154 153 137 134 124 116 111 103 108 116 152 192 195 197 183 158 137 135 131 130 131 144 144 160 151 130 116 103 89 88 100 89 84 78 67 60
118 121 140 148 158 147 151 143 139 148 151 135 126 120 115 119 120 115 122 139 142 142 143 139 140 138 140 142 144 154 158 141 129 117 113 112 105 94 82 85 105 116 77
107 111 121 127 121 123 125 124 127 125 137 130 140 149 145 130 144 153 158 157 161 151 142 137 134 134 132 133 131 130 122 112 112 118 122 116 100 92 75 57 52 65 78
101 101 109 113 113 116 120 113 112 126 134 122 110 117 124 127 142 150 164 169 164 159 151 144 145 146 141 141 134 116 116 119 122 124 121 115 113 104 89 68 62 55 51
102 108 109 107 111 114 116 120 123 124 126 126 129 120 106 107 105 127 158 181 173 165 148 146 148 153 151 139 132 127 130 130 127 124 123 117 116 116 108 106 84 75 63
104 105 105 107 109 116 116 125 135 143 143 137 136 137 130 138 139 165 160 165 163 174 164 165 164 164 157 155 152 149 142 140 140 132 125 123 124 121 120 98 83 77 58
108 116 112 102 97 110 121 122 127 131 149 153 156 161 162 162 150 162 165 169 167 165 164 157 159 163 164 161 153 155 147 148 141 137 137 133 138 149 125 112 104 87 65
129 154 142 137 127 119 127 137 145 148 150 157 167 169 167 156 164 177 184 184 181 174 170 168 171 170 171 169 166 163 155 148 141 134 135 142 127 128 118 119 114 96 61
114 140 172 175 171 157 142 141 146 149 154 166 185 197 200 198 208 206 203 195 190 182 178 177 178 176 174 169 168 169 167 166 162 156 152 152 152 153 146 130 114 102 63
165 170 186 193 187 190 187 176 172 174 171 173 176 183 184 192 199 202 202 198 193 191 192 190 184 186 187 186 181 180 180 175 173 171 166 175 176 153 140 139 143 149 304
193 188 179 176 176 191 198 202 201 207 208 199 189 186 192 200 200 197 198 194 192 195 201 197 195 193 194 191 192 191 191 192 187 178 174 174 165 154 159 169 193 241 284
208 206 204 197 189 193 193 195 202 202 199 197 197 198 202 208 211 208 202 204 204 204 205 204 204 204 202 198 199 199 198 193 187 184 175 166 162 170 171 187 221 256 281
214 212 212 210 208 208 210 215 215 213 207 201 206 212 216 219 222 224 220 221 218 216 215 212 213 210 207 206 205 203 202 193 186 187 185 184 185 190 198 206 214 242 270
219 217 216 216 217 217 217 221 227 229 231 228 225 225 225 228 231 231 228 226 225 222 218 216 215 211 209 212 211 209 208 200 201 203 201 205 209 215 220 227 236 250 267
Height
833 837 841 844 846 848 849 851 852 853 854 855 858 859 861 862 864 865 867 868 869 869 870 871 871 871 872 872 873 872 872 871 869 867 869 869 869 869 868 867 866 864 860
829 833 836 840 842 845 846 848 850 851 852 854 855 856 857 858 861 861 863 864 865 866 867 867 868 869 868 869 870 870 870 869 869 867 867 867 868 867 867 866 865 864 862
825 829 832 835 838 840 843 845 847 848 850 851 851 852 853 854 856 858 859 861 862 863 863 864 865 866 866 866 866 867 867 867 867 867 866 867 867 868 867 867 867 866 865
820 824 827 829 833 836 839 841 844 845 847 847 848 849 850 851 852 854 856 857 859 860 860 861 862 861 862 862 863 864 865 865 865 865 866 866 867 867 867 866 868 867 867
816 819 820 824 828 831 834 837 839 841 843 845 846 847 847 848 849 850 851 853 855 857 857 857 858 858 857 858 860 861 862 862 863 863 864 865 866 866 866 866 865 865 866
812 815 816 819 822 825 828 832 835 837 839 840 842 843 844 845 845 846 847 848 851 852 853 853 853 854 854 854 856 857 858 859 859 860 861 862 863 864 864 865 864 863 863
806 810 814 815 816 819 823 827 830 833 835 836 837 839 841 841 841 842 843 845 845 846 848 849 849 851 852 853 853 855 855 856 856 857 858 861 862 862 861 861 862 863 866
802 805 808 810 813 815 818 821 825 828 830 832 833 834 835 835 837 838 838 839 840 841 843 845 847 849 849 851 852 854 854 854 856 857 858 860 861 863 863 863 864 863 864
799 801 803 805 807 810 814 815 820 823 826 827 829 831 831 831 833 836 836 837 836 837 841 842 844 847 849 851 851 852 855 856 857 858 858 860 861 861 862 865 866 864 865
798 799 801 802 802 803 807 809 810 818 822 824 825 828 828 829 829 830 833 833 833 834 840 843 843 845 847 851 852 853 856 858 859 861 860 861 862 863 863 863 865 865 863
801 800 799 800 801 802 805 810 812 811 818 820 823 823 825 826 827 828 830 830 831 833 838 839 841 844 848 849 852 855 858 858 861 861 863 864 863 864 864 865 864 865 868
796 793 795 799 800 800 800 805 802 813 814 816 818 821 822 824 826 828 830 831 833 835 836 838 841 844 848 849 852 853 857 861 862 862 865 866 866 866 866 866 867 867 867
796 795 798 802 802 805 805 808 810 809 812 818 821 824 825 825 827 828 831 834 835 837 839 841 846 845 846 848 853 854 859 862 863 865 868 869 870 870 871 871 868 868 869
800 801 803 803 805 806 809 809 810 812 817 817 821 824 826 828 830 830 832 836 839 840 842 840 845 849 850 850 852 857 859 860 862 865 869 871 870 871 873 872 871 871 870
801 804 806 807 807 809 811 812 814 817 819 819 824 828 829 829 830 832 835 836 839 841 843 846 848 848 853 854 854 856 858 861 864 865 869 870 871 872 875 877 876 873 873
804 806 808 809 809 812 813 814 816 820 822 822 827 830 831 832 834 836 838 840 842 844 844 845 848 851 854 857 859 856 859 862 865 868 870 869 870 871 873 876 877 878 877
809 812 812 812 815 817 818 818 820 825 827 829 832 833 833 835 837 839 838 843 844 845 845 849 853 855 856 857 857 859 864 865 865 867 868 869 871 872 872 876 875 875 876
814 815 816 816 818 819 821 823 824 827 829 831 834 835 835 837 839 839 841 844 845 847 847 849 851 854 855 857 859 861 860 863 867 867 869 869 872 874 874 875 877 877 878
816 818 819 820 821 822 823 825 828 828 830 831 833 835 837 839 839 842 842 845 847 848 850 850 852 855 860 862 862 863 865 867 866 867 870 871 872 875 874 874 876 876 877
818 819 821 822 823 824 825 826 829 831 831 833 835 836 837 839 841 842 844 845 847 848 850 852 854 856 858 861 861 864 867 866 866 868 870 874 874 877 875 873 874 877 878
819 819 820 821 823 825 826 827 829 830 830 831 833 835 837 839 841 843 844 844 846 848 849 851 854 856 857 857 861 864 866 868 868 869 870 873 874 875 875 877 874 876 878
821 822 823 823 824 825 827 827 828 829 830 831 833 834 836 838 838 841 843 844 846 848 849 850 852 854 857 858 859 861 865 865 868 870 870 873 875 872 871 874 876 876 877
820 821 822 823 824 825 827 828 829 830 832 832 833 834 835 836 837 839 842 844 844 845 847 849 850 852 853 855 858 859 862 866 866 867 868 870 871 870 872 873 874 875 875
818 820 821 822 824 825 826 827 827 828 828 829 831 832 834 836 838 839 840 841 841 843 844 845 848 850 851 853 855 856 859 862 864 866 866 867 868 870 871 872 874 873 873
815 816 818 820 821 822 823 823 824 824 826 827 828 829 830 831 833 835 835 838 839 841 842 843 845 846 847 850 853 855 857 857 859 863 865 866 868 868 870 870 869 870 871
810 812 814 815 817 818 819 820 821 822 823 824 825 826 827 828 829 830 832 833 835 836 838 840 842 843 845 847 849 851 853 854 856 859 862 864 864 865 867 867 867 868 868